Location: *
(45.9500°N, 9.0833°E)
Time: 21:01:19
(UTC+00:00)

Cosmos 1354 Rocket - Pass Details

Date: 03 March 2021
Orbit: 765 x 782 km, 74.0° (Epoch: 20 April)

Event Time Altitude Azimuth Distance (km) Brightness Sun altitude
Rises 18:19:10 0° 340° (NNW) 3,250 7.6 -12.3°
Reaches altitude 10° 18:21:35 10° 343° (NNW) 2,318 6.8 -12.7°
Maximum altitude 18:26:49 69° 67° (ENE) 823 3.9 -13.6°
Drops below altitude 10° 18:32:01 10° 150° (SSE) 2,296 6.1 -14.5°
Enters shadow 18:33:33 - 152° (SSE) 2,891 6.7 -14.8°
